DateTimeUTC,F1_A11,F1_S11,BsB_S11,BsG_S11,BsR_S11,BbsB_S11,BbsG_S11,BbsR_S11,BaB_A11,BaG_A11,BaR_A11,Tu_S11,T_S11,Uu_S11,U_S11,P_S11,T1_A11
2021-08-10T00:00:00Z,00040200,20000000,,,,,,,0000.09,-000.31,-000.49,18.5,25.1,08.9,05.9,0670.5,31.0
2021-08-10T00:01:00Z,00040200,20000000,,,,,,,0000.22,-000.16,0000.22,18.5,25.2,08.9,05.9,0670.5,31.0
2021-08-10T00:02:00Z,00040200,20000000,,,,,,,-000.47,0000.14,-000.26,18.4,25.2,08.9,05.9,0670.5,31.0
2021-08-10T00:03:00Z,00040200,60000000,,,,,,,0000.05,0000.09,0000.10,18.4,25.2,08.9,05.9,0670.5,30.9
2021-08-10T00:04:00Z,00040200,40000000,0003.89,0002.73,0002.26,0000.70,0000.18,0000.32,0000.64,0000.35,0000.42,18.5,25.0,08.7,05.9,0671.4,31.0
2021-08-10T00:05:00Z,00040200,00000000,0004.41,0003.09,0002.33,-000.30,0000.17,0000.30,0000.85,0000.58,0000.47,18.6,24.9,08.5,05.8,0671.4,31.0
2021-08-10T00:06:00Z,00040200,00000000,0004.40,0003.46,0002.36,0000.78,0000.26,0000.40,0000.56,0000.56,0000.09,18.6,24.9,08.5,05.8,0671.4,31.0
2021-08-10T00:07:00Z,00040200,00000000,0004.51,0003.26,0003.09,0000.67,0000.26,0000.49,0000.68,0000.34,0000.58,18.6,24.9,08.4,05.7,0671.4,31.0
2021-08-10T00:08:00Z,00040200,00000000,0004.16,0003.81,0002.80,-000.06,0000.69,0000.52,0000.45,0001.27,0000.60,18.6,24.9,08.3,05.7,0671.4,31.0
2021-08-10T00:09:00Z,00040200,00000000,0004.89,0004.08,0002.78,0000.77,0000.44,0000.33,0000.99,0000.39,0000.82,18.7,24.9,08.2,05.6,0671.4,31.0
2021-08-10T00:10:00Z,00040200,00000000,0005.46,0004.13,0002.77,0000.88,0000.38,0000.44,0000.51,0001.09,0000.54,18.7,24.9,08.3,05.7,0671.4,31.0
2021-08-10T00:11:00Z,00040200,00000000,0005.61,0003.81,0002.97,0000.58,0000.47,0000.43,0000.69,-000.18,0000.55,18.7,24.9,08.1,05.5,0671.4,31.0
2021-08-10T00:12:00Z,00040200,00000000,0004.47,0004.23,0002.79,0000.23,0000.39,0000.36,0001.28,0001.44,0000.41,18.7,24.9,08.0,05.5,0671.4,31.0
2021-08-10T00:13:00Z,00040200,00000000,0005.02,0004.48,0002.97,0000.29,0000.51,0000.33,0000.88,0000.75,0001.01,18.7,24.9,08.0,05.5,0671.4,31.0
2021-08-10T00:14:00Z,00040200,00000000,0005.88,0004.65,0003.26,0000.87,0000.40,0000.55,0000.55,0000.98,0000.53,18.7,24.9,07.9,05.4,0671.4,31.0
2021-08-10T00:15:00Z,00040200,00000000,0005.82,0004.39,0003.26,0000.57,0000.59,0000.75,0001.21,0000.65,0000.29,18.7,24.9,07.9,05.4,0671.4,31.0
2021-08-10T00:16:00Z,00040200,00000000,0005.43,0003.75,0003.11,0000.83,0000.16,0000.20,0001.03,0000.91,0000.99,18.7,24.9,07.8,05.3,0671.4,31.0
2021-08-10T00:17:00Z,00040200,00000000,0006.19,0004.32,0003.42,0000.30,0000.38,0000.49,0000.51,0000.57,0000.36,18.7,24.9,07.7,05.3,0671.4,31.0
2021-08-10T00:18:00Z,00040200,00000000,0006.00,0004.57,0002.91,0000.56,0000.36,0000.68,0001.13,0001.01,0001.11,18.6,24.9,07.7,05.3,0671.4,31.0
2021-08-10T00:19:00Z,00040200,00000000,0004.89,0004.27,0003.47,0000.29,0000.40,0000.68,0000.78,0000.55,0000.55,18.6,24.8,07.7,05.3,0671.4,31.0
2021-08-10T00:20:00Z,00040200,00000000,0005.72,0004.59,0003.08,0000.47,0000.65,0000.28,0001.16,0001.26,0000.54,18.6,24.8,07.6,05.2,0671.5,31.0
2021-08-10T00:21:00Z,00040200,00000000,0005.39,0004.70,0003.28,0000.03,0000.39,0000.61,0000.66,0000.80,0000.58,18.6,24.8,07.5,05.1,0671.5,31.0
2021-08-10T00:22:00Z,00040200,00000000,0004.90,0004.35,0002.96,0000.52,0000.60,0000.33,0001.16,0000.81,0000.85,18.6,24.8,07.5,05.1,0671.5,31.0
2021-08-10T00:23:00Z,00040200,00000000,0006.05,0004.82,0003.30,0000.99,0000.43,0000.33,0000.74,0000.83,0000.56,18.6,24.8,07.4,05.1,0671.5,31.0
2021-08-10T00:24:00Z,00040200,00000000,0004.81,0004.30,0003.35,0001.23,0000.51,0000.34,0000.87,0000.90,0000.96,18.7,24.9,07.4,05.1,0671.5,31.0
2021-08-10T00:25:00Z,00040200,00000000,0005.60,0004.44,0002.84,0000.69,0000.17,0000.50,0001.22,0000.83,0000.35,18.7,24.9,07.4,05.1,0671.5,31.0
2021-08-10T00:26:00Z,00040200,00000000,0006.03,0004.32,0002.92,0000.19,0000.67,0000.34,0000.86,0000.96,0001.17,18.8,24.9,07.2,04.9,0671.5,31.0
2021-08-10T00:27:00Z,00040200,00000000,0005.33,0004.65,0003.20,0001.05,0000.80,0000.52,0000.83,0001.03,0000.97,18.8,25.0,07.2,04.9,0671.5,31.0
2021-08-10T00:28:00Z,00040200,00000000,0006.28,0004.14,0003.25,0000.13,0000.28,0000.34,0000.91,0000.54,0000.08,18.8,25.0,07.2,04.9,0671.5,31.0
2021-08-10T00:29:00Z,00040200,00000000,0005.35,0004.53,0003.18,0000.73,0000.29,0000.48,0001.05,0001.12,0000.99,18.8,25.0,07.1,04.9,0671.5,31.0
2021-08-10T00:30:00Z,00040200,00000000,0005.50,0004.31,0003.18,0000.19,0000.36,0000.29,0000.92,0001.04,0001.04,18.8,24.9,07.1,04.8,0671.5,31.0
2021-08-10T00:31:00Z,00040200,00000000,0005.19,0004.59,0003.10,0000.46,0000.39,0000.67,0001.10,0000.91,0000.27,18.7,24.9,07.1,04.9,0671.6,31.0
2021-08-10T00:32:00Z,00040200,00000000,0006.35,0004.43,0003.28,0001.44,0000.42,0000.59,0000.99,0000.65,0000.81,18.7,24.9,07.1,04.9,0671.6,31.0
2021-08-10T00:33:00Z,00040200,00000000,0006.13,0004.37,0003.28,-000.01,0000.60,0000.25,0001.05,0001.08,0001.00,18.7,24.9,07.0,04.8,0671.6,31.0
2021-08-10T00:34:00Z,00040200,00000000,0005.23,0004.44,0003.20,0000.88,0000.63,0000.36,0000.86,0000.96,0000.58,18.7,24.9,07.0,04.8,0671.6,31.0
2021-08-10T00:35:00Z,00040200,00000000,0005.33,0004.39,0003.08,0000.89,0000.70,0000.30,0001.02,0000.71,0000.77,18.7,24.9,06.9,04.7,0671.6,31.0
2021-08-10T00:36:00Z,00040200,00000000,0006.43,0004.87,0003.21,-000.05,0000.34,0000.34,0000.90,0000.95,0000.58,18.6,24.9,06.9,04.7,0671.6,31.0
2021-08-10T00:37:00Z,00040200,00000000,0005.23,0004.74,0003.05,0001.03,0000.68,0000.68,0000.74,0000.53,0000.55,18.6,24.9,06.9,04.7,0671.6,31.0
2021-08-10T00:38:00Z,00040200,00000000,0005.04,0004.32,0003.22,0001.31,0000.41,0000.38,0001.18,0001.36,0000.99,18.7,24.9,06.9,04.7,0671.6,31.0
2021-08-10T00:39:00Z,00040200,00000000,0006.21,0004.61,0003.22,0000.45,0000.50,0000.23,0000.89,0000.82,0000.83,18.7,24.9,06.8,04.7,0671.6,31.0
2021-08-10T00:40:00Z,00040200,00000000,0005.51,0004.19,0003.37,0000.75,0000.39,0000.69,0001.09,0000.88,0000.75,18.8,24.9,06.8,04.7,0671.5,31.0
2021-08-10T00:41:00Z,00040200,00000000,0005.37,0004.55,0003.09,0000.91,0000.37,0000.57,0001.30,0001.24,0000.94,18.8,25.0,06.9,04.7,0671.5,31.0
2021-08-10T00:42:00Z,00040200,00000000,0006.15,0004.34,0003.34,0000.51,0000.65,0000.64,0001.01,0000.81,0000.85,18.8,25.0,06.9,04.7,0671.5,31.0
2021-08-10T00:43:00Z,00040200,00000000,0005.89,0004.29,0002.96,0001.19,0000.75,0000.51,0000.91,0001.29,0001.04,18.8,25.0,06.9,04.7,0671.5,31.0
2021-08-10T00:44:00Z,00040200,00000000,0005.88,0004.56,0002.92,0000.73,0000.28,0000.09,0001.40,0000.76,0000.31,18.8,25.0,06.8,04.7,0671.5,31.0
2021-08-10T00:45:00Z,00040200,00000000,0006.06,0004.17,0003.07,0000.42,0000.59,0000.57,0000.75,0001.22,0000.95,18.7,24.9,06.8,04.7,0671.5,31.0
2021-08-10T00:46:00Z,00040200,00000000,0006.37,0004.30,0003.00,0000.32,0000.52,0000.50,0001.46,0000.86,0000.92,18.7,24.9,06.8,04.6,0671.5,31.0
2021-08-10T00:47:00Z,00040200,00000000,0005.36,0004.83,0003.16,0000.70,0000.30,0000.60,0000.56,0000.75,0000.60,18.7,24.9,06.8,04.6,0671.5,31.0
2021-08-10T00:48:00Z,00040200,00000000,0005.51,0004.41,0003.31,0000.85,0000.49,0000.67,0000.90,0000.59,0000.61,18.7,24.9,06.7,04.6,0671.5,31.0
2021-08-10T00:49:00Z,00040200,00000000,0005.07,0004.12,0003.10,0001.11,0000.51,0000.61,0000.96,0001.43,0001.02,18.7,24.9,06.7,04.6,0671.5,31.0
2021-08-10T00:50:00Z,00040200,00000000,0005.74,0004.37,0003.21,0000.16,0000.70,0000.60,0001.05,0001.09,0000.69,18.6,24.9,06.8,04.7,0671.5,31.0
2021-08-10T00:51:00Z,00040200,00000000,0005.82,0004.46,0003.31,0000.65,0000.31,0000.66,0000.97,0000.54,0000.51,18.6,24.9,06.7,04.6,0671.5,30.9
2021-08-10T00:52:00Z,00040200,00000000,0005.44,0004.40,0003.32,0000.79,0000.44,0000.49,0000.98,0000.75,0001.21,18.6,24.8,06.8,04.6,0671.5,31.0
2021-08-10T00:53:00Z,00040200,00000000,0005.57,0004.48,0002.99,0000.73,0000.58,0000.37,0001.36,0001.20,0000.55,18.6,24.8,06.7,04.6,0671.6,31.0
2021-08-10T00:54:00Z,00040200,00000000,0005.20,0004.16,0003.30,0001.20,0000.50,0000.04,0000.41,0000.93,0000.54,18.6,24.8,06.6,04.5,0671.6,30.9
2021-08-10T00:55:00Z,00040200,00000000,0006.08,0004.11,0003.21,0000.58,0000.35,0000.77,0000.89,0000.72,0000.63,18.5,24.8,06.7,04.6,0671.6,31.0
2021-08-10T00:56:00Z,00040200,00000000,0005.73,0004.78,0002.99,0000.77,0000.60,0000.69,0000.65,0000.23,0000.33,18.5,24.8,06.5,04.4,0671.6,31.0
2021-08-10T00:57:00Z,00040200,40000000,,,,,,,0001.26,0001.31,0000.87,18.5,24.8,06.3,04.3,0671.6,31.0
2021-08-10T00:58:00Z,00040200,60000000,,,,,,,-000.56,-000.38,-000.26,18.2,24.9,06.8,04.5,0670.6,31.0
2021-08-10T00:59:00Z,00040200,20000000,,,,,,,-000.63,-000.46,-000.54,18.2,25.0,06.6,04.4,0670.6,30.9
